TimeSAST,TemperatureF,Dew PointF,Humidity,Sea Level PressureIn,VisibilityMPH,Wind Direction,Wind SpeedMPH,Gust SpeedMPH,PrecipitationIn,Events,Conditions,WindDirDegrees,DateUTC
12:00 AM,64.4,55.4,73,30.06,6.2,WNW,12.7,-,N/A,,Mostly Cloudy,290,2013-12-03 22:00:00
1:00 AM,62.6,55.4,77,30.04,6.2,West,10.4,-,N/A,,Partly Cloudy,280,2013-12-03 23:00:00
2:00 AM,62,55,73,30.04,12,NW,12.7,,,,,310,2013-12-04 00:00:00
2:00 AM,62.6,55.4,77,30.04,6.2,NW,11.5,-,N/A,,Scattered Clouds,310,2013-12-04 00:00:00
3:00 AM,60.8,53.6,77,30.04,-9999.0,NW,11.5,-,N/A,,Clear,320,2013-12-04 01:00:00
4:00 AM,59.0,51.8,77,30.04,-9999.0,WNW,9.2,-,N/A,,Clear,290,2013-12-04 02:00:00
5:00 AM,60,53,70,30.04,19,WNW,10.4,,,,Scattered Clouds,300,2013-12-04 03:00:00
6:00 AM,59.0,53.6,82,30.06,6.2,WNW,8.1,-,N/A,,Partly Cloudy,300,2013-12-04 04:00:00
7:00 AM,64.4,53.6,68,30.06,6.2,WNW,13.8,-,N/A,,Partly Cloudy,290,2013-12-04 05:00:00
8:00 AM,66,54,55,30.09,19,West,18.4,,,,Scattered Clouds,280,2013-12-04 06:00:00
8:00 AM,66.2,53.6,64,30.09,6.2,West,18.4,-,N/A,,Partly Cloudy,280,2013-12-04 06:00:00
9:00 AM,69.8,51.8,53,30.06,6.2,West,20.7,-,N/A,,Partly Cloudy,270,2013-12-04 07:00:00
10:00 AM,71.6,48.2,43,30.06,6.2,West,18.4,-,N/A,,Partly Cloudy,260,2013-12-04 08:00:00
11:00 AM,74,51,33,30.06,19,West,16.1,,,,Mostly Cloudy,270,2013-12-04 09:00:00
11:00 AM,73.4,51.8,47,30.06,6.2,West,16.1,-,N/A,,Scattered Clouds,280,2013-12-04 09:00:00
12:00 PM,68.0,57.2,68,30.09,6.2,SSW,18.4,-,N/A,,Mostly Cloudy,200,2013-12-04 10:00:00
1:00 PM,64.4,59.0,83,30.12,6.2,SSW,19.6,-,N/A,,Mostly Cloudy,210,2013-12-04 11:00:00
2:00 PM,65,59,74,30.12,5,SW,20.7,,,Rain,Light Rain,220,2013-12-04 12:00:00
2:00 PM,64.4,57.2,77,30.12,5.0,SW,20.7,-,N/A,,Mostly Cloudy,220,2013-12-04 12:00:00
3:00 PM,66.2,55.4,68,30.12,6.2,SW,15.0,-,N/A,,Mostly Cloudy,230,2013-12-04 13:00:00
4:00 PM,66.2,53.6,64,30.12,6.2,SW,15.0,-,N/A,,Mostly Cloudy,230,2013-12-04 14:00:00
5:00 PM,64,58,74,30.14,12,SSW,19.6,,,,Overcast,210,2013-12-04 15:00:00
5:00 PM,64.4,57.2,77,30.15,6.2,SSW,18.4,-,N/A,,Mostly Cloudy,210,2013-12-04 15:00:00
6:00 PM,62.6,55.4,77,30.15,6.2,SW,16.1,-,N/A,,Mostly Cloudy,220,2013-12-04 16:00:00
7:00 PM,62.6,53.6,72,30.18,6.2,SSW,15.0,-,N/A,,Mostly Cloudy,210,2013-12-04 17:00:00
8:00 PM,61,52,64,30.22,12,SW,13.8,,,,Overcast,220,2013-12-04 18:00:00
8:00 PM,60.8,51.8,72,30.21,6.2,SW,13.8,-,N/A,,Mostly Cloudy,220,2013-12-04 18:00:00
9:00 PM,60.8,50.0,68,30.24,6.2,WSW,11.5,-,N/A,,Mostly Cloudy,240,2013-12-04 19:00:00
10:00 PM,59.0,51.8,77,30.27,6.2,West,6.9,-,N/A,,Mostly Cloudy,270,2013-12-04 20:00:00
11:00 PM,59.0,51.8,77,30.27,6.2,SW,4.6,-,N/A,Rain,Light Rain,220,2013-12-04 21:00:00